Regional Weather Roundup
Issued by NWS

Home | Current Version | Previous Version | Graphics & Text | Print | Product List | Glossary On
Versions: 1 2 3 4 5 6 7 8 9 10 11 12 13 14 15 16 17 18 19 20 21 22 23 24 25 26 27 28 29 30 31 32 33 34 35 36 37 38 39 40 41 42 43 44 45 46 47 48 49 50
000
ASUS43 KMKX 062159
RWRWI

WISCONSIN REGIONAL WEATHER ROUNDUP
NATIONAL WEATHER SERVICE MILWAUKEE/SULLIVAN WI
400 PM CST FRI MAR 06 2015

NOTE: "FAIR" INDICATES FEW OR NO CLOUDS BELOW 12,000 FEET WITH NO
SIGNIFICANT WEATHER AND/OR OBSTRUCTIONS TO VISIBILITY.

WIZ001-002-006>008-014>016-023>028-062300-
NORTHWEST WISCONSIN

CITY           SKY/WX    TMP DP  RH WIND       PRES   REMARKS
SUPERIOR ARPT  SUNNY     34  13  41 NW14G24   29.98R WCI  25
ASHLAND        SUNNY     33  12  41 W12       29.96S WCI  24
HAYWARD        SUNNY     32  11  41 SW8       29.97R WCI  25
SIREN          SUNNY     34  14  43 W10       30.00S WCI  26
CUMBERLAND     SUNNY     30  14  51 W10       29.99S WCI  21
RICE LAKE      SUNNY     31  14  49 W7        30.02S WCI  24
CHETEK         SUNNY     31  14  48 W7        30.01S WCI  24
LADYSMITH      SUNNY     31  13  47 W12       30.00S WCI  21
EAU CLAIRE     NOT AVBL
MENOMONIE      SUNNY     35  17  48 SW8       30.03S WCI  29
NEW RICHMOND   SUNNY     34  15  46 NW10      30.03R WCI  26
OSCEOLA        SUNNY     34  16  47 NW6       30.05S WCI  29
$$

WIZ003>005-009-010-017-018-062300-
NORTH CENTRAL WISCONSIN

CITY           SKY/WX    TMP DP  RH WIND       PRES   REMARKS
MANITOWISH WTR SUNNY     28   9  44 W10G18    29.90S WCI  19
ARBOR VITAE    SUNNY     29  10  45 W8G17     29.91S WCI  21
WOODRUFF       SUNNY     29  10  45 W8G17     29.91S WCI  21
RHINELANDER    SUNNY     28  12  51 W17       29.92S WCI  16
EAGLE RIVER    SUNNY     28   7  41 W12       29.90R WCI  18
LAND O LAKES   SUNNY     30   8  38 W10G16    29.89S WCI  21
PHILLIPS       SUNNY     28  11  49 SW10G16   29.94S WCI  18
TOMAHAWK       SUNNY     30  10  43 CALM      29.94S
MEDFORD        SUNNY     27  13  54 SW13      29.97S WCI  17
MERRILL        SUNNY     28  12  51 SW13      29.96S WCI  18
$$

WIZ029-030-035-036-043>047-062300-
CENTRAL WISCONSIN

CITY           SKY/WX    TMP DP  RH WIND       PRES   REMARKS
WAUSAU         SUNNY     29  13  51 W16G22    29.97R WCI  17
MOSINEE        SUNNY     28  14  54 SW14      29.99R WCI  17
MARSHFIELD     SUNNY     31  13  47 W13       29.99R WCI  21
STEVENS POINT  SUNNY     30  12  46 SW12      29.99S WCI  21
WAUPACA        SUNNY     35  14  41 SW12      30.01S WCI  27
WAUTOMA        NOT AVBL
WISC RAPIDS    SUNNY     32  13  45 SW10      30.02R WCI  24
CAMP DOUGLAS   NOT AVBL
$$

WIZ011>013-019>022-031-037>040-048>050-062300-
NORTHEAST WISCONSIN

CITY           SKY/WX    TMP DP  RH WIND       PRES   REMARKS
ANTIGO         SUNNY     27  13  55 SW13      29.94S WCI  16
SHAWANO        SUNNY     33  13  42 SW14      29.99F WCI  24
OCONTO         SUNNY     30  13  49 SW16G22   29.99F WCI  19
STURGEON BAY   FAIR      27  12  54 SW17G24   30.01F WCI  14
GREEN BAY      MOSUNNY   28  16  60 S13       30.01F WCI  17
MANITOWOC      NOT AVBL
APPLETON       MOSUNNY   30  12  47 SW18      30.02F WCI  18
CLINTONVILLE   SUNNY     32  14  47 SW13G18   29.99F WCI  22
OSHKOSH        CLOUDY    28  14  55 SW17G26   30.03F WCI  16
$$

WIZ032>034-041-042-053>061-062300-
SOUTHWEST WISCONSIN

CITY           SKY/WX    TMP DP  RH WIND       PRES   REMARKS
LA CROSSE      SUNNY     35  20  54 SW10      30.07R WCI  27
SPARTA         SUNNY     35  16  47 SW12      30.05R WCI  26
VIROQUA        SUNNY     31  18  60 SW16      30.05S WCI  20
BOSCOBEL       LGT RAIN  34  18  52 SW14G22   30.10F WCI  25
PRAIRIE DU CHI SUNNY     33  19  56 SW10      30.10F WCI  25
PLATTEVILLE    SUNNY     30  19  64 S16       30.12S WCI  19
$$

WIZ056-057-062-063-064-067-068-062300-
SOUTH CENTRAL WISCONSIN

CITY           SKY/WX    TMP DP  RH WIND       PRES   REMARKS
REEDSBURG      SUNNY     31  16  54 SW13      30.06S WCI  21
BARABOO/DELLS  SUNNY     29  15  54 SW14      30.05F WCI  19
LONE ROCK      NOT AVBL
MINERAL POINT  SUNNY     32  19  59 SW14      30.09S WCI  22
MADISON        MOSUNNY   29  14  53 S10G16    30.09F WCI  20
MIDDLETON      MOSUNNY   31  14  47 SW12G21   30.09F WCI  22
WATERTOWN      MOSUNNY   27  15  61 SW14G20   30.10S WCI  16
MONROE         SUNNY     30  19  64 SW18      30.10F WCI  18
JANESVILLE     SUNNY     28  16  59 SW18G24   30.13F WCI  16
$$

WIZ051-052-058>065-066-070>072-062300-
SOUTHEAST WISCONSIN

CITY           SKY/WX    TMP DP  RH WIND       PRES   REMARKS
MILWAUKEE      PTSUNNY   27  14  58 SW17G29   30.12F WCI  14
WAUKESHA       MOSUNNY   25  12  58 SW15G23   30.11F WCI  12
MILWAUKEE/TIMM PTSUNNY   27  12  54 SW20G28   30.11F WCI  13
RACINE         PTSUNNY   27  13  55 SW17G31   30.15F WCI  14
BURLINGTON     SUNNY     25  14  64 SW22      30.15S WCI  10
KENOSHA        SUNNY     26  15  63 SW22G28   30.15F WCI  12
FOND DU LAC    CLOUDY    28  13  53 SW18G24   30.05F WCI  15
SHEBOYGAN      CLOUDY    26  14  60 S21       30.05F WCI  12
WEST BEND      MOSUNNY   28  12  50 SW16G23   30.08F WCI  17
JUNEAU         PTSUNNY   25  14  63 S21       30.09F WCI  11
$$

LSZ147-162-062300-
LAKE SUPERIOR

STATION/POSITION TIME  TEMP    WIND        PRES    WAVE
                       AIR SEA DIR/SP/G            HT/PER
                 (UTC) (F)     (DEG/KT/KT) (MB)    (FT/S)
DEVILS ISLAND    2100   29     240/ 21/ 26 1014.3S
PORT WING        2100   32     240/ 13/ 18 1014.9
SAXON HARBOR     2100   34     270/  6/ 12 1014.2S
$$

LMZ867-665-643>646-062300-
LAKE MICHIGAN

STATION/POSITION TIME  TEMP    WIND        PRES    WAVE
                       AIR SEA DIR/SP/G            HT/PER
                 (UTC) (F)     (DEG/KT/KT) (MB)    (FT/S)
NORTHPORT PIER   2120   28     190/  6/ 17 1015.6F
SISTER BAY       1943   26     220/ 19/ 24   N/A
KEWAUNEE LAKESHO 2100   28     230/ 13/ 19 1016.3F
SHEBOYGAN LAKESH 2100   28     210/ 19/ 23 1019.7F
PORT WASHINGTON  2140   30     240/  9/ 18 1019.6F
MILWAUKEE LAKESH 2100   26     220/ 20/ 28   N/A
KENOSHA   LAKESH 2100   28     220/ 17/ 26 1021.3F
$$

TC  - TEMPERATURE IN CELSIUS
VSB - VISIBILITY IN STATUTE MILES
WCI - WIND CHILL INDEX
HX  - HEAT INDEX



USA.gov is the U.S. government's official web portal to all federal, state and local government web resources and services.